NOZ1972 EKCH-ENGM

Flight info

Callsign NOZ1972
Flight time N/A
Altitude 36000
Route VEDAR DCT SABAK DCT LUNIP
Aircraft B738/M-SDE2E3FGHIRWXY/LB1

Departure

Time 2026-04-22 17:06
Airport Copenhagen Kastrup Airport (EKCH)

Arrival

Time N/A
Airport Oslo-Gardermoen International Airport (ENGM)
Time Latitude Longitude Altitude Speed Heading
2026-04-22 16:49 55.62698 12.64578 20 ft 0 kts 282°
2026-04-22 16:51 55.62698 12.64579 20 ft 0 kts 282°
2026-04-22 16:57 55.62697 12.64590 20 ft 4 kts 279°
2026-04-22 16:57 55.62695 12.64637 19 ft 4 kts 262°
2026-04-22 16:58 55.62701 12.64683 21 ft 4 kts 246°
2026-04-22 16:58 55.62708 12.64706 20 ft 1 kts 241°
2026-04-22 16:58 55.62709 12.64709 20 ft 2 kts 241°
2026-04-22 17:00 55.62660 12.64674 19 ft 8 kts 193°
2026-04-22 17:00 55.62596 12.64653 18 ft 10 kts 184°
2026-04-22 17:01 55.62528 12.64651 19 ft 10 kts 179°
2026-04-22 17:01 55.62470 12.64615 21 ft 10 kts 249°
2026-04-22 17:01 55.62453 12.64492 20 ft 12 kts 229°
2026-04-22 17:01 55.62371 12.64440 18 ft 13 kts 195°
2026-04-22 17:02 55.62283 12.64397 18 ft 13 kts 195°
2026-04-22 17:02 55.62188 12.64333 15 ft 16 kts 206°
2026-04-22 17:02 55.62086 12.64252 18 ft 16 kts 205°
2026-04-22 17:02 55.61989 12.64172 20 ft 15 kts 204°
2026-04-22 17:03 55.61896 12.64097 23 ft 14 kts 204°
2026-04-22 17:03 55.61815 12.63988 19 ft 15 kts 221°
2026-04-22 17:03 55.61738 12.63866 20 ft 15 kts 221°
2026-04-22 17:03 55.61656 12.63738 17 ft 17 kts 221°
2026-04-22 17:04 55.61568 12.63603 17 ft 17 kts 221°
2026-04-22 17:04 55.61478 12.63465 19 ft 17 kts 221°
2026-04-22 17:04 55.61391 12.63329 19 ft 16 kts 221°
2026-04-22 17:04 55.61307 12.63199 22 ft 16 kts 222°
2026-04-22 17:05 55.61222 12.63069 20 ft 17 kts 221°
2026-04-22 17:05 55.61132 12.62942 20 ft 16 kts 211°
2026-04-22 17:05 55.61017 12.62886 17 ft 18 kts 193°
2026-04-22 17:05 55.60899 12.62835 18 ft 17 kts 194°
2026-04-22 17:06 55.60777 12.62756 19 ft 19 kts 216°
2026-04-22 17:06 55.60534 12.62382 20 ft 93 kts 221°
2026-04-22 17:06 55.59818 12.61286 175 ft 161 kts 227°
2026-04-22 17:06 55.59008 12.59958 1300 ft 162 kts 233°
2026-04-22 17:07 55.58227 12.58452 2424 ft 167 kts 232°
2026-04-22 17:07 55.57362 12.57061 3611 ft 172 kts 229°
2026-04-22 17:07 55.56424 12.55579 4390 ft 194 kts 233°
2026-04-22 17:07 55.55800 12.53439 5206 ft 200 kts 266°
2026-04-22 17:08 55.55930 12.50960 5765 ft 217 kts 296°
2026-04-22 17:08 55.56843 12.48797 6221 ft 228 kts 324°
2026-04-22 17:08 55.58320 12.47409 6691 ft 249 kts 334°
2026-04-22 17:08 55.59637 12.45378 7465 ft 262 kts 301°
2026-04-22 17:09 55.60009 12.42188 8386 ft 276 kts 269°
2026-04-22 17:09 55.59752 12.38767 9229 ft 283 kts 269°
2026-04-22 17:09 55.59619 12.35261 10058 ft 289 kts 270°
2026-04-22 17:09 55.59707 12.31707 10703 ft 295 kts 289°
2026-04-22 17:10 55.60750 12.28510 10900 ft 312 kts 320°
2026-04-22 17:10 55.62679 12.26720 11367 ft 321 kts 350°
2026-04-22 17:10 55.64906 12.26904 12110 ft 325 kts 15°
2026-04-22 17:10 55.67064 12.27995 12915 ft 330 kts 12°
2026-04-22 17:11 55.69358 12.28527 13704 ft 335 kts
2026-04-22 17:11 55.71712 12.28501 14470 ft 340 kts 358°
2026-04-22 17:11 55.74078 12.28169 15195 ft 344 kts 355°
2026-04-22 17:11 55.76479 12.27723 15919 ft 348 kts 355°
2026-04-22 17:12 55.78904 12.27256 16630 ft 353 kts 356°
2026-04-22 17:12 55.81362 12.26947 17342 ft 356 kts 358°
2026-04-22 17:12 55.83851 12.26722 18054 ft 361 kts 359°
2026-04-22 17:12 55.86371 12.26509 18722 ft 365 kts 359°
2026-04-22 17:13 55.88931 12.26283 19332 ft 369 kts 359°
2026-04-22 17:13 55.91506 12.26043 19942 ft 372 kts 359°
2026-04-22 17:13 55.94108 12.25790 20548 ft 376 kts 359°
2026-04-22 17:13 55.96746 12.25528 21126 ft 380 kts 360°
2026-04-22 17:14 55.99393 12.25261 21713 ft 384 kts 360°
2026-04-22 17:14 56.02070 12.24988 22311 ft 387 kts
2026-04-22 17:14 56.04734 12.24717 22869 ft 390 kts
2026-04-22 17:14 56.07459 12.24440 23418 ft 394 kts
2026-04-22 17:15 56.09311 12.24252 23796 ft 396 kts
2026-04-22 17:15 56.12990 12.23689 24396 ft 403 kts 356°
2026-04-22 17:15 56.15774 12.22950 24854 ft 407 kts 355°
2026-04-22 17:15 56.18576 12.22122 25292 ft 410 kts 355°
2026-04-22 17:16 56.21399 12.21281 25726 ft 413 kts 355°
2026-04-22 17:16 56.24251 12.20448 26145 ft 416 kts 356°
2026-04-22 17:16 56.27107 12.19635 26623 ft 417 kts 356°
2026-04-22 17:16 56.29979 12.18832 27072 ft 419 kts 356°
2026-04-22 17:17 56.32875 12.18031 27461 ft 422 kts 356°
2026-04-22 17:17 56.35790 12.17228 27838 ft 425 kts 356°
2026-04-22 17:17 56.38725 12.16420 28227 ft 428 kts 357°
2026-04-22 17:17 56.41679 12.15604 28568 ft 431 kts 357°
2026-04-22 17:18 56.44667 12.14777 28852 ft 436 kts 357°
2026-04-22 17:18 56.47636 12.13952 29219 ft 438 kts 357°
2026-04-22 17:18 56.50656 12.13112 29606 ft 440 kts 357°
2026-04-22 17:18 56.53690 12.12267 29970 ft 442 kts 357°
2026-04-22 17:19 56.59745 12.10570 30911 ft 438 kts 357°
2026-04-22 17:19 56.65758 12.08878 31712 ft 436 kts 358°
2026-04-22 17:20 56.71752 12.07190 32476 ft 435 kts 358°
2026-04-22 17:20 56.77727 12.05500 33244 ft 434 kts 358°
2026-04-22 17:21 56.80676 12.04665 33591 ft 434 kts 358°
2026-04-22 17:21 56.86590 12.02981 34501 ft 427 kts 358°
2026-04-22 17:22 56.92484 12.01304 34993 ft 430 kts 358°
2026-04-22 17:22 56.95437 12.00462 35296 ft 429 kts 358°
2026-04-22 17:22 57.01315 11.98778 35937 ft 427 kts 358°
2026-04-22 17:23 57.04247 11.97937 36194 ft 427 kts 358°
2026-04-22 17:23 57.13212 11.95368 36231 ft 441 kts 357°
2026-04-22 17:24 57.19297 11.93612 36240 ft 450 kts 357°
2026-04-22 17:24 57.25533 11.91801 36230 ft 456 kts 357°
2026-04-22 17:25 57.31848 11.89959 36240 ft 461 kts 357°
2026-04-22 17:25 57.38192 11.88101 36212 ft 461 kts 356°
2026-04-22 17:26 57.44497 11.86245 36222 ft 457 kts 356°
2026-04-22 17:26 57.50741 11.84408 36234 ft 457 kts 356°
2026-04-22 17:27 57.57031 11.82553 36231 ft 458 kts 356°
2026-04-22 17:27 57.63334 11.80687 36229 ft 458 kts 356°
2026-04-22 17:28 57.69622 11.78817 36204 ft 458 kts 356°
2026-04-22 17:28 57.75919 11.76938 36212 ft 457 kts 356°
2026-04-22 17:29 57.82200 11.75057 36211 ft 457 kts 356°
2026-04-22 17:29 57.88456 11.73174 36193 ft 446 kts 356°
2026-04-22 17:30 57.91469 11.72255 36199 ft 431 kts 356°
2026-04-22 17:30 57.94389 11.71366 36184 ft 419 kts 356°
2026-04-22 17:30 57.97224 11.70505 35597 ft 414 kts 356°
2026-04-22 17:30 58.00036 11.69662 35252 ft 409 kts 356°
2026-04-22 17:31 58.02858 11.68815 34723 ft 410 kts 356°
2026-04-22 17:31 58.05655 11.67969 34335 ft 406 kts 356°
2026-04-22 17:31 58.08434 11.67126 33888 ft 403 kts 356°
2026-04-22 17:31 58.11192 11.66286 33465 ft 400 kts 356°
2026-04-22 17:32 58.13922 11.65453 33082 ft 395 kts 356°
2026-04-22 17:32 58.16623 11.64627 32686 ft 391 kts 356°
2026-04-22 17:32 58.19299 11.63802 32367 ft 386 kts 355°
2026-04-22 17:32 58.21928 11.62970 32104 ft 378 kts 355°
2026-04-22 17:33 58.23636 11.62424 31909 ft 375 kts 355°
2026-04-22 17:33 58.27057 11.61329 31431 ft 371 kts 355°
2026-04-22 17:33 58.29593 11.60519 31077 ft 368 kts 355°
2026-04-22 17:33 58.32113 11.59714 30715 ft 366 kts 355°
2026-04-22 17:34 58.34614 11.58915 30357 ft 364 kts 355°
2026-04-22 17:34 58.37103 11.58119 29942 ft 361 kts 355°
2026-04-22 17:34 58.39545 11.57336 29574 ft 357 kts 355°
2026-04-22 17:34 58.41987 11.56552 29190 ft 354 kts 355°
2026-04-22 17:35 58.44403 11.55775 28824 ft 351 kts 354°
2026-04-22 17:35 58.46802 11.55003 28459 ft 348 kts 354°
2026-04-22 17:35 58.49180 11.54237 28084 ft 345 kts 354°
2026-04-22 17:35 58.51541 11.53476 27724 ft 342 kts 354°
2026-04-22 17:36 58.53883 11.52719 27369 ft 339 kts 354°
2026-04-22 17:36 58.56200 11.51970 27010 ft 337 kts 354°
2026-04-22 17:36 58.58507 11.51223 26656 ft 335 kts 354°
2026-04-22 17:36 58.60797 11.50481 26305 ft 332 kts 354°
2026-04-22 17:37 58.62307 11.49990 26077 ft 331 kts 354°
2026-04-22 17:37 58.64572 11.49255 25732 ft 329 kts 354°
2026-04-22 17:37 58.66817 11.48524 25389 ft 327 kts 354°
2026-04-22 17:37 58.69052 11.47795 25046 ft 325 kts 354°
2026-04-22 17:38 58.71997 11.46834 24604 ft 323 kts 354°
2026-04-22 17:38 58.73487 11.46347 24375 ft 322 kts 354°
2026-04-22 17:38 58.75696 11.45625 24030 ft 320 kts 354°
2026-04-22 17:38 58.77892 11.44906 23681 ft 319 kts 354°
2026-04-22 17:39 58.80075 11.44190 23292 ft 318 kts 354°
2026-04-22 17:39 58.82246 11.43477 22924 ft 315 kts 354°
2026-04-22 17:39 58.86507 11.42074 22281 ft 309 kts 353°
2026-04-22 17:40 58.88620 11.41377 21943 ft 308 kts 353°
2026-04-22 17:40 58.90734 11.40680 21617 ft 308 kts 353°
2026-04-22 17:40 58.92849 11.39982 21277 ft 310 kts 353°
2026-04-22 17:40 58.95007 11.39271 20966 ft 318 kts 353°
2026-04-22 17:41 58.97203 11.38545 20617 ft 321 kts 353°
2026-04-22 17:41 58.99401 11.37815 20252 ft 319 kts 353°
2026-04-22 17:41 59.01585 11.37087 19918 ft 317 kts 353°
2026-04-22 17:41 59.03752 11.36365 19581 ft 315 kts 353°
2026-04-22 17:42 59.05901 11.35648 19247 ft 313 kts 353°
2026-04-22 17:42 59.08044 11.34933 18920 ft 311 kts 352°
2026-04-22 17:42 59.10169 11.34224 18589 ft 309 kts 352°
2026-04-22 17:42 59.12284 11.33517 18204 ft 308 kts 352°
2026-04-22 17:43 59.14388 11.32813 17861 ft 306 kts 352°
2026-04-22 17:43 59.16481 11.32112 17539 ft 303 kts 352°
2026-04-22 17:43 59.18522 11.31432 17382 ft 294 kts 352°
2026-04-22 17:43 59.20545 11.30936 17084 ft 291 kts 355°
2026-04-22 17:44 59.22556 11.30542 16741 ft 289 kts 355°
2026-04-22 17:44 59.24549 11.30163 16445 ft 287 kts 355°
2026-04-22 17:44 59.26538 11.29779 16131 ft 285 kts 354°
2026-04-22 17:44 59.28506 11.29390 15823 ft 284 kts 354°
2026-04-22 17:45 59.30464 11.28997 15511 ft 282 kts 354°
2026-04-22 17:45 59.32412 11.28601 15210 ft 280 kts 353°
2026-04-22 17:45 59.34322 11.28210 14906 ft 279 kts 353°
2026-04-22 17:45 59.36245 11.27815 14611 ft 277 kts 353°
2026-04-22 17:46 59.38165 11.27418 14306 ft 276 kts 353°
2026-04-22 17:46 59.40066 11.27026 14008 ft 275 kts 352°
2026-04-22 17:46 59.41966 11.26632 13680 ft 273 kts 352°
2026-04-22 17:46 59.43849 11.26241 13363 ft 271 kts 353°
2026-04-22 17:47 59.45724 11.25847 13071 ft 269 kts 352°
2026-04-22 17:47 59.47571 11.25415 12745 ft 267 kts 352°
2026-04-22 17:47 59.49416 11.24970 12433 ft 266 kts 352°
2026-04-22 17:47 59.51255 11.24526 12113 ft 265 kts 352°
2026-04-22 17:48 59.53078 11.24089 11810 ft 264 kts 352°
2026-04-22 17:48 59.54876 11.23658 11688 ft 256 kts 352°
2026-04-22 17:48 59.56616 11.23243 11558 ft 248 kts 352°
2026-04-22 17:48 59.58306 11.22839 11447 ft 240 kts 352°
2026-04-22 17:49 59.59940 11.22448 11337 ft 235 kts 352°
2026-04-22 17:49 59.61568 11.22514 11220 ft 237 kts 14°
2026-04-22 17:49 59.62979 11.24208 11213 ft 243 kts 39°
2026-04-22 17:49 59.64023 11.26885 11199 ft 253 kts 58°
2026-04-22 17:50 59.64627 11.30194 11217 ft 258 kts 65°
2026-04-22 17:50 59.65210 11.33558 11199 ft 258 kts 64°
2026-04-22 17:50 59.65800 11.36866 11190 ft 258 kts 64°
2026-04-22 17:50 59.66404 11.40207 11188 ft 257 kts 62°
2026-04-22 17:51 59.67297 11.43152 11194 ft 246 kts 41°
2026-04-22 17:51 59.68479 11.45667 10962 ft 253 kts 43°
2026-04-22 17:51 59.69614 11.48293 10837 ft 251 kts 44°
2026-04-22 17:51 59.70725 11.50914 10760 ft 246 kts 44°
2026-04-22 17:52 59.71818 11.53502 10668 ft 243 kts 44°
2026-04-22 17:52 59.72901 11.56065 10591 ft 242 kts 43°
2026-04-22 17:52 59.74144 11.58197 10505 ft 233 kts 24°
2026-04-22 17:52 59.75580 11.59690 10383 ft 236 kts 25°
2026-04-22 17:53 59.77011 11.61345 10229 ft 239 kts 26°
2026-04-22 17:53 59.78454 11.63045 10060 ft 241 kts 25°
2026-04-22 17:53 59.79980 11.64212 9890 ft 231 kts
2026-04-22 17:53 59.81518 11.63653 9708 ft 226 kts 336°
2026-04-22 17:54 59.82824 11.61909 9426 ft 228 kts 318°
2026-04-22 17:54 59.83728 11.59322 9136 ft 235 kts 298°
2026-04-22 17:54 59.84306 11.56276 8850 ft 236 kts 296°
2026-04-22 17:54 59.84870 11.53219 8595 ft 235 kts 296°
2026-04-22 17:55 59.85433 11.50168 8322 ft 233 kts 296°
2026-04-22 17:55 59.85986 11.47167 8121 ft 230 kts 297°
2026-04-22 17:55 59.86540 11.44174 7867 ft 229 kts 297°
2026-04-22 17:55 59.87091 11.41193 7623 ft 230 kts 297°
2026-04-22 17:56 59.87654 11.38151 7219 ft 236 kts 297°
2026-04-22 17:56 59.88215 11.35112 6971 ft 235 kts 297°
2026-04-22 17:56 59.88775 11.32070 6765 ft 232 kts 297°
2026-04-22 17:56 59.89321 11.29099 6554 ft 230 kts 297°
2026-04-22 17:57 59.89870 11.26115 6330 ft 227 kts 296°
2026-04-22 17:57 59.90410 11.23178 6177 ft 226 kts 296°
2026-04-22 17:57 59.90953 11.20224 6004 ft 228 kts 295°
2026-04-22 17:57 59.91494 11.17257 5828 ft 228 kts 295°
2026-04-22 17:58 59.92034 11.14301 5681 ft 225 kts 295°
2026-04-22 17:58 59.92594 11.11412 5541 ft 222 kts 302°
2026-04-22 17:58 59.93557 11.09086 5425 ft 217 kts 320°
2026-04-22 17:58 59.94618 11.06931 5188 ft 222 kts 316°